User: anonymous   Login
Location: Unspecified
(0.0000°N, 0.0000°E)
Time: 19:05:04
(UTC+00:00)
Language:

OBJECT A - Orbit

View from above orbital plane
View from above orbital plane
View from above satellite
View from above satellite

Ground track
Ground track

The orbit is defined by the following mean orbital elements,

1 60745U          26145.63484654 +.00000000 +00000-0 +10143-2 0 00004
2 60745  97.6700 286.1196 0008194 213.8801 146.1924 15.44564572    01
Epoch (UTC): 25 May 2026 15:14:10
Eccentricity: 0.0008194
inclination: 97.6700°
perigee height: 427 km
apogee height: 438 km
right ascension of ascending node: 286.1196°
argument of perigee: 213.8801°
revolutions per day: 15.44564572
mean anomaly at epoch: 146.1924°

The dashed part of the orbit path shows where the satellite is in the earth's shadow,  

DLR